SDM5864 UACC-ULLI

Flight info

Callsign SDM5864
Flight time 3h 23m
Altitude 40000
Route KODOL1B KODOL T523 ATBAN L994 DOKUT L998 LANOR N993 SONAT M60 APSAS L259 PRIBI P979 BEPOL BEPOL1V
Aircraft A359/H-SDE2E3GHIJ3J4J5LM1ORWXY/LB1D1

Departure

Time 2026-04-21 16:01
Airport Nursultan Nazarbayev International Airport (UACC)

Arrival

Time 2026-04-21 19:24
Airport Pulkovo Airport (ULLI)
Time Latitude Longitude Altitude Speed Heading
2026-04-21 15:20 51.02602 71.46084 1167 ft 0 kts 357°
2026-04-21 15:47 51.02587 71.46085 1166 ft 3 kts 357°
2026-04-21 15:47 51.02569 71.46086 1166 ft 3 kts 357°
2026-04-21 15:48 51.02550 71.46087 1165 ft 3 kts 357°
2026-04-21 15:48 51.02532 71.46089 1167 ft 3 kts 357°
2026-04-21 15:48 51.02514 71.46090 1165 ft 3 kts 357°
2026-04-21 15:48 51.02496 71.46091 1165 ft 3 kts 13°
2026-04-21 15:49 51.02482 71.46084 1165 ft 0 kts 42°
2026-04-21 15:53 51.02515 71.46134 1170 ft 10 kts 45°
2026-04-21 15:53 51.02567 71.46216 1167 ft 12 kts 45°
2026-04-21 15:53 51.02613 71.46325 1165 ft 13 kts 64°
2026-04-21 15:54 51.02646 71.46460 1166 ft 14 kts 69°
2026-04-21 15:54 51.02695 71.46557 1166 ft 11 kts 45°
2026-04-21 15:54 51.02756 71.46652 1168 ft 13 kts 44°
2026-04-21 15:54 51.02813 71.46756 1165 ft 7 kts 78°
2026-04-21 15:55 51.02797 71.46836 1168 ft 9 kts 121°
2026-04-21 15:55 51.02778 71.46926 1167 ft 8 kts 84°
2026-04-21 15:55 51.02809 71.47013 1167 ft 10 kts 49°
2026-04-21 15:55 51.02862 71.47101 1168 ft 12 kts 46°
2026-04-21 15:56 51.02924 71.47203 1166 ft 14 kts 45°
2026-04-21 15:56 51.02996 71.47316 1169 ft 15 kts 43°
2026-04-21 15:56 51.03077 71.47437 1167 ft 17 kts 44°
2026-04-21 15:56 51.03164 71.47572 1165 ft 18 kts 44°
2026-04-21 15:57 51.03258 71.47717 1166 ft 19 kts 46°
2026-04-21 15:57 51.03355 71.47877 1169 ft 21 kts 46°
2026-04-21 15:57 51.03421 71.48011 1165 ft 13 kts 71°
2026-04-21 15:57 51.03428 71.48137 1167 ft 0 kts 89°
2026-04-21 15:59 51.03429 71.48187 1169 ft 15 kts 89°
2026-04-21 15:59 51.03383 71.48310 1167 ft 13 kts 156°
2026-04-21 15:59 51.03309 71.48261 1167 ft 13 kts 220°
2026-04-21 16:00 51.03232 71.48141 1168 ft 28 kts 225°
2026-04-21 16:00 51.02926 71.47657 1169 ft 95 kts 224°
2026-04-21 16:00 51.02312 71.46700 1168 ft 151 kts 225°
2026-04-21 16:00 51.01516 71.45413 1650 ft 158 kts 228°
2026-04-21 16:01 51.00808 71.44204 2487 ft 145 kts 226°
2026-04-21 16:01 51.00054 71.43060 2769 ft 157 kts 223°
2026-04-21 16:01 50.99215 71.41805 2958 ft 174 kts 223°
2026-04-21 16:01 50.98293 71.40407 3181 ft 192 kts 224°
2026-04-21 16:02 50.97307 71.38847 3369 ft 213 kts 228°
2026-04-21 16:02 50.96588 71.36656 3565 ft 235 kts 259°
2026-04-21 16:02 50.96644 71.34014 3857 ft 252 kts 277°
2026-04-21 16:02 50.96952 71.31219 4347 ft 261 kts 278°
2026-04-21 16:03 50.97281 71.28322 4922 ft 266 kts 278°
2026-04-21 16:03 50.97593 71.25466 5577 ft 267 kts 278°
2026-04-21 16:03 50.97900 71.22549 6202 ft 270 kts 278°
2026-04-21 16:03 50.98206 71.19586 6751 ft 274 kts 278°
2026-04-21 16:04 50.98513 71.16582 7341 ft 277 kts 278°
2026-04-21 16:04 50.98820 71.13550 7960 ft 279 kts 277°
2026-04-21 16:04 50.99126 71.10503 8626 ft 280 kts 278°
2026-04-21 16:04 50.99434 71.07429 9248 ft 284 kts 278°
2026-04-21 16:05 50.99746 71.04311 9845 ft 288 kts 277°
2026-04-21 16:05 51.00129 71.01174 10333 ft 295 kts 283°
2026-04-21 16:05 51.00656 70.97942 10612 ft 309 kts 284°
2026-04-21 16:05 51.01235 70.94579 10877 ft 323 kts 285°
2026-04-21 16:06 51.01839 70.91072 11113 ft 336 kts 285°
2026-04-21 16:06 51.02472 70.87443 11462 ft 344 kts 287°
2026-04-21 16:06 51.03012 70.85067 11769 ft 347 kts 292°
2026-04-21 16:06 51.04302 70.80332 12473 ft 350 kts 294°
2026-04-21 16:07 51.05297 70.76786 13023 ft 352 kts 294°
2026-04-21 16:07 51.05958 70.74427 13392 ft 353 kts 294°
2026-04-21 16:07 51.06953 70.70860 13909 ft 353 kts 294°
2026-04-21 16:07 51.08284 70.66067 14532 ft 356 kts 294°
2026-04-21 16:08 51.10279 70.58856 15367 ft 361 kts 294°
2026-04-21 16:08 51.11293 70.55181 15807 ft 364 kts 293°
2026-04-21 16:08 51.12312 70.51481 16238 ft 366 kts 293°
2026-04-21 16:09 51.13004 70.48963 16522 ft 369 kts 293°
2026-04-21 16:09 51.14370 70.43989 17067 ft 372 kts 293°
2026-04-21 16:09 51.15409 70.40198 17508 ft 374 kts 293°
2026-04-21 16:09 51.16114 70.37621 17789 ft 376 kts 293°
2026-04-21 16:10 51.17161 70.33789 18182 ft 379 kts 293°
2026-04-21 16:10 51.18199 70.29984 18557 ft 380 kts 293°
2026-04-21 16:10 51.19254 70.26109 18926 ft 382 kts 293°
2026-04-21 16:10 51.20327 70.22161 19298 ft 384 kts 293°
2026-04-21 16:11 51.21376 70.18298 19664 ft 386 kts 293°
2026-04-21 16:11 51.22442 70.14363 20014 ft 387 kts 293°
2026-04-21 16:11 51.23512 70.10410 20371 ft 389 kts 293°
2026-04-21 16:11 51.24585 70.06435 20726 ft 391 kts 293°
2026-04-21 16:12 51.25662 70.02439 21081 ft 393 kts 293°
2026-04-21 16:12 51.26743 69.98431 21429 ft 394 kts 293°
2026-04-21 16:12 51.27969 69.94500 21773 ft 396 kts 300°
2026-04-21 16:12 51.29443 69.90771 22088 ft 398 kts 303°
2026-04-21 16:13 51.31031 69.87131 22424 ft 400 kts 305°
2026-04-21 16:13 51.32674 69.83531 22755 ft 402 kts 306°
2026-04-21 16:13 51.34342 69.79929 23076 ft 404 kts 306°
2026-04-21 16:13 51.36013 69.76311 23390 ft 405 kts 306°
2026-04-21 16:14 51.37683 69.72665 23674 ft 407 kts 306°
2026-04-21 16:14 51.39351 69.68990 23937 ft 408 kts 305°
2026-04-21 16:14 51.41015 69.65294 24199 ft 410 kts 305°
2026-04-21 16:14 51.42681 69.61580 24456 ft 411 kts 305°
2026-04-21 16:15 51.44350 69.57846 24728 ft 412 kts 304°
2026-04-21 16:15 51.46021 69.54100 25011 ft 414 kts 304°
2026-04-21 16:15 51.47699 69.50333 25270 ft 416 kts 304°
2026-04-21 16:15 51.49385 69.46545 25541 ft 417 kts 304°
2026-04-21 16:16 51.51072 69.42748 25825 ft 419 kts 304°
2026-04-21 16:16 51.52764 69.38936 26113 ft 420 kts 304°
2026-04-21 16:16 51.54464 69.35102 26402 ft 422 kts 304°
2026-04-21 16:16 51.56171 69.31251 26660 ft 424 kts 303°
2026-04-21 16:17 51.57885 69.27375 26962 ft 426 kts 303°
2026-04-21 16:17 51.59602 69.23482 27291 ft 428 kts 303°
2026-04-21 16:17 51.61326 69.19570 27608 ft 429 kts 303°
2026-04-21 16:17 51.63051 69.15647 27974 ft 431 kts 303°
2026-04-21 16:18 51.64787 69.11698 28318 ft 432 kts 303°
2026-04-21 16:18 51.66525 69.07738 28656 ft 434 kts 303°
2026-04-21 16:18 51.68270 69.03751 29012 ft 436 kts 303°
2026-04-21 16:18 51.70020 68.99748 29348 ft 438 kts 303°
2026-04-21 16:19 51.71779 68.95719 29697 ft 440 kts 302°
2026-04-21 16:19 51.73543 68.91672 30022 ft 442 kts 302°
2026-04-21 16:19 51.75312 68.87607 30324 ft 444 kts 302°
2026-04-21 16:19 51.77089 68.83518 30623 ft 445 kts 302°
2026-04-21 16:20 51.78870 68.79414 30934 ft 447 kts 302°
2026-04-21 16:20 51.80654 68.75295 31227 ft 449 kts 302°
2026-04-21 16:20 51.82444 68.71158 31532 ft 450 kts 302°
2026-04-21 16:20 51.84240 68.67000 31811 ft 451 kts 302°
2026-04-21 16:21 51.86038 68.62828 32073 ft 453 kts 301°
2026-04-21 16:21 51.87842 68.58636 32337 ft 455 kts 301°
2026-04-21 16:21 51.89650 68.54428 32605 ft 456 kts 301°
2026-04-21 16:21 51.91460 68.50209 32848 ft 457 kts 301°
2026-04-21 16:22 51.93275 68.45972 33127 ft 457 kts 301°
2026-04-21 16:22 51.95085 68.41743 33514 ft 456 kts 301°
2026-04-21 16:22 51.96819 68.37468 33885 ft 452 kts 296°
2026-04-21 16:22 51.98276 68.32981 34186 ft 449 kts 292°
2026-04-21 16:23 51.99616 68.28487 34439 ft 448 kts 292°
2026-04-21 16:23 52.00952 68.23843 34686 ft 448 kts 291°
2026-04-21 16:23 52.02248 68.19251 34948 ft 448 kts 291°
2026-04-21 16:23 52.03517 68.14711 35207 ft 447 kts 291°
2026-04-21 16:24 52.04800 68.10110 35460 ft 447 kts 291°
2026-04-21 16:24 52.06082 68.05512 35712 ft 447 kts 291°
2026-04-21 16:24 52.07366 68.00912 35956 ft 447 kts 291°
2026-04-21 16:24 52.08648 67.96316 36202 ft 447 kts 290°
2026-04-21 16:25 52.09932 67.91713 36444 ft 447 kts 290°
2026-04-21 16:25 52.11213 67.87113 36674 ft 447 kts 290°
2026-04-21 16:25 52.12493 67.82512 36929 ft 446 kts 290°
2026-04-21 16:25 52.13771 67.77906 37174 ft 446 kts 290°
2026-04-21 16:26 52.15047 67.73300 37369 ft 447 kts 290°
2026-04-21 16:26 52.16322 67.68681 37555 ft 447 kts 290°
2026-04-21 16:26 52.17597 67.64059 37775 ft 448 kts 290°
2026-04-21 16:26 52.18871 67.59428 37957 ft 448 kts 290°
2026-04-21 16:27 52.20145 67.54793 38142 ft 448 kts 290°
2026-04-21 16:27 52.21420 67.50154 38324 ft 448 kts 289°
2026-04-21 16:27 52.22690 67.45511 38498 ft 448 kts 289°
2026-04-21 16:27 52.23957 67.40864 38632 ft 449 kts 289°
2026-04-21 16:28 52.25224 67.36205 38767 ft 449 kts 289°
2026-04-21 16:28 52.26488 67.31554 38900 ft 449 kts 289°
2026-04-21 16:28 52.27751 67.26893 39032 ft 449 kts 289°
2026-04-21 16:28 52.29014 67.22228 39148 ft 450 kts 289°
2026-04-21 16:29 52.30280 67.17542 39224 ft 451 kts 289°
2026-04-21 16:29 52.31543 67.12856 39345 ft 451 kts 289°
2026-04-21 16:29 52.32808 67.08155 39455 ft 452 kts 289°
2026-04-21 16:30 52.35332 66.98748 39659 ft 452 kts 289°
2026-04-21 16:30 52.36593 66.94037 39772 ft 452 kts 289°
2026-04-21 16:30 52.37853 66.89315 39796 ft 453 kts 289°
2026-04-21 16:31 52.39945 66.81456 39799 ft 453 kts 289°
2026-04-21 16:31 52.42878 66.70386 39806 ft 453 kts 289°
2026-04-21 16:32 52.45328 66.60877 39784 ft 453 kts 288°
2026-04-21 16:32 52.47752 66.51350 39784 ft 453 kts 288°
2026-04-21 16:33 52.50175 66.41819 39787 ft 453 kts 288°
2026-04-21 16:33 52.52580 66.32346 39787 ft 453 kts 288°
2026-04-21 16:34 52.54996 66.22795 39785 ft 453 kts 288°
2026-04-21 16:34 52.57405 66.13233 39798 ft 453 kts 288°
2026-04-21 16:35 52.59807 66.03657 39782 ft 453 kts 288°
2026-04-21 16:35 52.62205 65.94055 39777 ft 454 kts 288°
2026-04-21 16:36 52.64595 65.84443 39774 ft 454 kts 288°
2026-04-21 16:36 52.66977 65.74824 39769 ft 454 kts 288°
2026-04-21 16:37 52.69353 65.65183 39769 ft 455 kts 288°
2026-04-21 16:37 52.71728 65.55501 39776 ft 456 kts 288°
2026-04-21 16:38 52.74100 65.45794 39766 ft 457 kts 288°
2026-04-21 16:38 52.76495 65.36081 39765 ft 457 kts 288°
2026-04-21 16:39 52.78976 65.26409 39764 ft 458 kts 290°
2026-04-21 16:39 52.82350 65.17391 39761 ft 467 kts 304°
2026-04-21 16:40 52.86527 65.09222 39756 ft 469 kts 306°
2026-04-21 16:40 52.90861 65.01142 39752 ft 470 kts 307°
2026-04-21 16:41 52.94471 64.94419 39752 ft 469 kts 306°
2026-04-21 16:41 52.99522 64.84919 39746 ft 470 kts 306°
2026-04-21 16:42 53.03829 64.76759 39747 ft 470 kts 306°
2026-04-21 16:42 53.08130 64.68574 39732 ft 470 kts 306°
2026-04-21 16:43 53.12435 64.60358 39749 ft 471 kts 306°
2026-04-21 16:43 53.16734 64.52128 39746 ft 471 kts 306°
2026-04-21 16:44 53.21025 64.43887 39741 ft 471 kts 306°
2026-04-21 16:44 53.25313 64.35623 39749 ft 471 kts 306°
2026-04-21 16:45 53.29596 64.27341 39726 ft 471 kts 306°
2026-04-21 16:45 53.33873 64.19042 39726 ft 471 kts 306°
2026-04-21 16:46 53.38117 64.10781 39723 ft 471 kts 306°
2026-04-21 16:46 53.42382 64.02451 39724 ft 471 kts 306°
2026-04-21 16:47 53.46642 63.94102 39723 ft 471 kts 306°
2026-04-21 16:47 53.50898 63.85731 39718 ft 471 kts 306°
2026-04-21 16:48 53.55151 63.77341 39719 ft 471 kts 306°
2026-04-21 16:48 53.59395 63.68939 39719 ft 471 kts 305°
2026-04-21 16:49 53.63638 63.60510 39718 ft 472 kts 305°
2026-04-21 16:49 53.67877 63.52060 39713 ft 472 kts 305°
2026-04-21 16:50 53.72108 63.43598 39712 ft 472 kts 305°
2026-04-21 16:50 53.76334 63.35117 39712 ft 472 kts 305°
2026-04-21 16:51 53.80553 63.26620 39712 ft 472 kts 305°
2026-04-21 16:51 53.84765 63.18107 39716 ft 472 kts 305°
2026-04-21 16:52 53.88977 63.09566 39707 ft 472 kts 305°
2026-04-21 16:52 53.92473 63.02455 39706 ft 472 kts 305°
2026-04-21 16:53 53.97381 62.92437 39701 ft 472 kts 305°
2026-04-21 16:53 54.01572 62.83850 39699 ft 472 kts 304°
2026-04-21 16:54 54.05735 62.75289 39701 ft 473 kts 304°
2026-04-21 16:54 54.09922 62.66651 39702 ft 473 kts 304°
2026-04-21 16:55 54.14057 62.57941 39696 ft 472 kts 304°
2026-04-21 16:55 54.18152 62.49171 39699 ft 472 kts 303°
2026-04-21 16:56 54.22253 62.40375 39699 ft 474 kts 304°
2026-04-21 16:56 54.26366 62.31548 39698 ft 475 kts 304°
2026-04-21 16:57 54.30483 62.22692 39700 ft 475 kts 304°
2026-04-21 16:57 54.34593 62.13823 39696 ft 475 kts 303°
2026-04-21 16:58 54.38695 62.04934 39708 ft 475 kts 304°
2026-04-21 16:58 54.42103 61.97525 39695 ft 476 kts 304°
2026-04-21 16:59 54.46202 61.88590 39693 ft 476 kts 303°
2026-04-21 16:59 54.50286 61.79629 39694 ft 476 kts 303°
2026-04-21 17:00 54.53702 61.72110 39690 ft 476 kts 303°
2026-04-21 17:00 54.58439 61.61647 39692 ft 477 kts 303°
2026-04-21 17:01 54.62514 61.52617 39691 ft 477 kts 303°
2026-04-21 17:01 54.66587 61.43559 39691 ft 477 kts 303°
2026-04-21 17:02 54.70655 61.34479 39688 ft 477 kts 303°
2026-04-21 17:02 54.74712 61.25391 39700 ft 477 kts 303°
2026-04-21 17:03 54.78766 61.16273 39686 ft 478 kts 303°
2026-04-21 17:03 54.82823 61.07126 39686 ft 478 kts 303°
2026-04-21 17:04 54.86862 60.97955 39688 ft 478 kts 303°
2026-04-21 17:04 54.90892 60.88769 39689 ft 478 kts 303°
2026-04-21 17:05 54.94925 60.79568 39702 ft 479 kts 303°
2026-04-21 17:05 54.98967 60.70343 39694 ft 479 kts 303°
2026-04-21 17:06 55.03003 60.61099 39697 ft 479 kts 303°
2026-04-21 17:06 55.07034 60.51828 39704 ft 479 kts 303°
2026-04-21 17:07 55.11028 60.42605 39732 ft 479 kts 303°
2026-04-21 17:07 55.15046 60.33291 39714 ft 480 kts 303°
2026-04-21 17:08 55.19064 60.23941 39712 ft 481 kts 303°
2026-04-21 17:08 55.23073 60.14578 39721 ft 481 kts 303°
2026-04-21 17:09 55.29077 60.00495 39743 ft 481 kts 303°
2026-04-21 17:09 55.33072 59.91074 39730 ft 482 kts 303°
2026-04-21 17:10 55.37074 59.81598 39735 ft 483 kts 303°
2026-04-21 17:10 55.41078 59.72088 39735 ft 484 kts 302°
2026-04-21 17:11 55.45045 59.62526 39739 ft 484 kts 302°
2026-04-21 17:11 55.48995 59.52937 39738 ft 484 kts 302°
2026-04-21 17:12 55.52943 59.43333 39738 ft 483 kts 302°
2026-04-21 17:12 55.56888 59.33712 39744 ft 483 kts 302°
2026-04-21 17:13 55.60823 59.24080 39744 ft 483 kts 302°
2026-04-21 17:13 55.64751 59.14427 39744 ft 483 kts 302°
2026-04-21 17:14 55.68672 59.04750 39741 ft 484 kts 302°
2026-04-21 17:14 55.72567 58.95102 39738 ft 484 kts 302°
2026-04-21 17:15 55.76479 58.85373 39738 ft 484 kts 302°
2026-04-21 17:15 55.80384 58.75624 39743 ft 484 kts 302°
2026-04-21 17:16 55.84288 58.65856 39749 ft 484 kts 302°
2026-04-21 17:16 55.88180 58.56060 39755 ft 485 kts 302°
2026-04-21 17:17 55.92069 58.46243 39738 ft 485 kts 301°
2026-04-21 17:17 55.95944 58.36406 39738 ft 484 kts 301°
2026-04-21 17:18 55.99812 58.26554 39738 ft 484 kts 301°
2026-04-21 17:18 56.03673 58.16680 39742 ft 485 kts 301°
2026-04-21 17:19 56.07540 58.06758 39734 ft 486 kts 301°
2026-04-21 17:19 56.11398 57.96817 39736 ft 486 kts 301°
2026-04-21 17:20 56.15250 57.86855 39738 ft 486 kts 301°
2026-04-21 17:20 56.19086 57.76877 39750 ft 486 kts 301°
2026-04-21 17:21 56.22916 57.66872 39729 ft 486 kts 301°
2026-04-21 17:21 56.26715 57.56910 39732 ft 486 kts 301°
2026-04-21 17:22 56.30535 57.46855 39721 ft 486 kts 301°
2026-04-21 17:22 56.34346 57.36790 39722 ft 486 kts 301°
2026-04-21 17:23 56.38150 57.26698 39727 ft 487 kts 301°
2026-04-21 17:23 56.41946 57.16570 39719 ft 487 kts 301°
2026-04-21 17:24 56.45742 57.06403 39713 ft 488 kts 301°
2026-04-21 17:24 56.49535 56.96208 39714 ft 489 kts 301°
2026-04-21 17:25 56.53322 56.85986 39705 ft 489 kts 301°
2026-04-21 17:25 56.57101 56.75741 39706 ft 489 kts 301°
2026-04-21 17:26 56.60879 56.65458 39699 ft 490 kts 301°
2026-04-21 17:26 56.64646 56.55159 39688 ft 490 kts 301°
2026-04-21 17:27 56.68408 56.44833 39689 ft 490 kts 300°
2026-04-21 17:27 56.72159 56.34488 39692 ft 490 kts 301°
2026-04-21 17:28 56.75908 56.24126 39682 ft 490 kts 301°
2026-04-21 17:28 56.79649 56.13729 39678 ft 490 kts 301°
2026-04-21 17:29 56.83378 56.03319 39678 ft 490 kts 300°
2026-04-21 17:29 56.87100 55.92884 39674 ft 490 kts 300°
2026-04-21 17:30 56.90786 55.82390 39677 ft 490 kts 300°
2026-04-21 17:30 56.94394 55.71791 39675 ft 491 kts 299°
2026-04-21 17:31 56.97997 55.61149 39673 ft 491 kts 299°
2026-04-21 17:31 57.01602 55.50504 39670 ft 492 kts 299°
2026-04-21 17:32 57.05208 55.39832 39672 ft 491 kts 299°
2026-04-21 17:32 57.08804 55.29144 39668 ft 492 kts 300°
2026-04-21 17:33 57.12397 55.18416 39671 ft 493 kts 299°
2026-04-21 17:33 57.15959 55.07736 39671 ft 493 kts 299°
2026-04-21 17:34 57.19533 54.96967 39668 ft 493 kts 299°
2026-04-21 17:34 57.23100 54.86170 39668 ft 493 kts 299°
2026-04-21 17:35 57.26657 54.75357 39662 ft 493 kts 299°
2026-04-21 17:35 57.30202 54.64528 39661 ft 493 kts 299°
2026-04-21 17:36 57.33742 54.53667 39665 ft 493 kts 299°
2026-04-21 17:36 57.37268 54.42801 39662 ft 492 kts 298°
2026-04-21 17:37 57.40787 54.31902 39661 ft 493 kts 299°
2026-04-21 17:37 57.44300 54.20975 39667 ft 493 kts 299°
2026-04-21 17:38 57.47805 54.10023 39663 ft 493 kts 298°
2026-04-21 17:38 57.51299 53.99051 39663 ft 493 kts 298°
2026-04-21 17:39 57.54787 53.88051 39663 ft 493 kts 298°
2026-04-21 17:39 57.58262 53.77037 39665 ft 493 kts 298°
2026-04-21 17:40 57.61731 53.65995 39667 ft 494 kts 298°
2026-04-21 17:40 57.65192 53.54925 39667 ft 494 kts 298°
2026-04-21 17:41 57.68639 53.43844 39667 ft 494 kts 298°
2026-04-21 17:41 57.72079 53.32737 39676 ft 493 kts 298°
2026-04-21 17:42 57.75511 53.21601 39669 ft 494 kts 298°
2026-04-21 17:42 57.78937 53.10433 39672 ft 494 kts 298°
2026-04-21 17:43 57.82354 52.99241 39668 ft 494 kts 298°
2026-04-21 17:43 57.85760 52.88033 39673 ft 494 kts 298°
2026-04-21 17:44 57.89156 52.76802 39677 ft 494 kts 298°
2026-04-21 17:44 57.91971 52.67452 39678 ft 494 kts 298°
2026-04-21 17:45 57.95349 52.56181 39678 ft 494 kts 298°
2026-04-21 17:45 57.98716 52.44894 39680 ft 494 kts 298°
2026-04-21 17:46 58.02073 52.33584 39679 ft 494 kts 298°
2026-04-21 17:46 58.05419 52.22257 39690 ft 494 kts 298°
2026-04-21 17:47 58.08761 52.10915 39685 ft 494 kts 298°
2026-04-21 17:47 58.12232 51.99696 39691 ft 494 kts 300°
2026-04-21 17:48 58.15753 51.88513 39687 ft 494 kts 300°
2026-04-21 17:48 58.19248 51.77296 39688 ft 494 kts 299°
2026-04-21 17:49 58.22717 51.66035 39693 ft 494 kts 299°
2026-04-21 17:49 58.26172 51.54741 39699 ft 495 kts 299°
2026-04-21 17:50 58.29617 51.43428 39699 ft 495 kts 299°
2026-04-21 17:50 58.33052 51.32096 39702 ft 494 kts 299°
2026-04-21 17:51 58.36482 51.20748 39703 ft 495 kts 299°
2026-04-21 17:51 58.39896 51.09382 39708 ft 494 kts 299°
2026-04-21 17:52 58.43298 50.97994 39704 ft 494 kts 298°
2026-04-21 17:52 58.46686 50.86604 39718 ft 493 kts 299°
2026-04-21 17:53 58.50060 50.75205 39720 ft 493 kts 298°
2026-04-21 17:53 58.53432 50.63763 39732 ft 493 kts 298°
2026-04-21 17:54 58.56799 50.52351 39734 ft 493 kts 300°
2026-04-21 17:54 58.60670 50.41597 39733 ft 494 kts 305°
2026-04-21 17:55 58.64712 50.30942 39737 ft 494 kts 305°
2026-04-21 17:55 58.68768 50.20316 39740 ft 493 kts 305°
2026-04-21 17:56 58.72811 50.09660 39739 ft 493 kts 305°
2026-04-21 17:56 58.76835 49.98983 39738 ft 492 kts 305°
2026-04-21 17:57 58.80841 49.88296 39753 ft 491 kts 305°
2026-04-21 17:57 58.84831 49.77601 39741 ft 491 kts 305°
2026-04-21 17:58 58.88816 49.66874 39758 ft 492 kts 304°
2026-04-21 17:58 58.92797 49.56110 39764 ft 492 kts 304°
2026-04-21 17:59 58.96762 49.45340 39762 ft 491 kts 304°
2026-04-21 17:59 59.00721 49.34550 39764 ft 491 kts 304°
2026-04-21 18:00 59.04677 49.23717 39768 ft 491 kts 304°
2026-04-21 18:00 59.08612 49.12866 39777 ft 490 kts 304°
2026-04-21 18:01 59.12537 49.02000 39777 ft 491 kts 304°
2026-04-21 18:01 59.16460 48.91096 39785 ft 492 kts 304°
2026-04-21 18:02 59.19980 48.79724 39777 ft 490 kts 292°
2026-04-21 18:02 59.21945 48.67042 39786 ft 489 kts 283°
2026-04-21 18:03 59.23372 48.54051 39782 ft 490 kts 281°
2026-04-21 18:03 59.24702 48.41009 39794 ft 489 kts 281°
2026-04-21 18:04 59.26034 48.27953 39798 ft 490 kts 281°
2026-04-21 18:04 59.27372 48.14913 39795 ft 489 kts 281°
2026-04-21 18:05 59.28704 48.01839 39807 ft 490 kts 281°
2026-04-21 18:05 59.30024 47.88769 39804 ft 489 kts 281°
2026-04-21 18:06 59.31331 47.75675 39801 ft 491 kts 281°
2026-04-21 18:06 59.32631 47.62523 39806 ft 492 kts 281°
2026-04-21 18:07 59.33919 47.49344 39808 ft 493 kts 281°
2026-04-21 18:07 59.35192 47.36159 39810 ft 493 kts 281°
2026-04-21 18:08 59.36452 47.22964 39812 ft 493 kts 281°
2026-04-21 18:08 59.37699 47.09753 39815 ft 493 kts 281°
2026-04-21 18:09 59.38933 46.96519 39806 ft 494 kts 281°
2026-04-21 18:09 59.40159 46.83237 39817 ft 495 kts 281°
2026-04-21 18:10 59.41364 46.70023 39813 ft 495 kts 280°
2026-04-21 18:10 59.42563 46.56707 39810 ft 495 kts 280°
2026-04-21 18:11 59.43749 46.43380 39821 ft 495 kts 280°
2026-04-21 18:11 59.44922 46.30046 39814 ft 495 kts 280°
2026-04-21 18:12 59.46082 46.16704 39823 ft 495 kts 280°
2026-04-21 18:12 59.47227 46.03340 39818 ft 496 kts 280°
2026-04-21 18:13 59.48360 45.89961 39814 ft 496 kts 280°
2026-04-21 18:13 59.49479 45.76582 39827 ft 496 kts 280°
2026-04-21 18:14 59.51132 45.56489 39835 ft 496 kts 280°
2026-04-21 18:15 59.52189 45.43072 39829 ft 496 kts 278°
2026-04-21 18:15 59.53029 45.29573 39841 ft 497 kts 277°
2026-04-21 18:16 59.53813 45.16054 39844 ft 497 kts 277°
2026-04-21 18:16 59.54612 45.02529 39848 ft 497 kts 277°
2026-04-21 18:17 59.55417 44.89012 39842 ft 497 kts 277°
2026-04-21 18:17 59.56214 44.75482 39846 ft 497 kts 277°
2026-04-21 18:18 59.57101 44.61977 39847 ft 496 kts 279°
2026-04-21 18:18 59.58101 44.48509 39857 ft 496 kts 279°
2026-04-21 18:19 59.59082 44.35021 39860 ft 496 kts 279°
2026-04-21 18:19 59.60025 44.21520 39852 ft 496 kts 279°
2026-04-21 18:20 59.60944 44.08020 39862 ft 496 kts 278°
2026-04-21 18:20 59.61851 43.94512 39856 ft 496 kts 278°
2026-04-21 18:21 59.62739 43.80990 39865 ft 496 kts 278°
2026-04-21 18:21 59.63616 43.67451 39869 ft 497 kts 278°
2026-04-21 18:22 59.64480 43.53908 39869 ft 497 kts 278°
2026-04-21 18:22 59.65332 43.40361 39881 ft 497 kts 278°
2026-04-21 18:23 59.66170 43.26804 39872 ft 497 kts 278°
2026-04-21 18:23 59.66994 43.13247 39874 ft 497 kts 278°
2026-04-21 18:24 59.67803 42.99664 39882 ft 497 kts 278°
2026-04-21 18:24 59.68591 42.86183 39880 ft 497 kts 278°
2026-04-21 18:25 59.69371 42.72606 39880 ft 497 kts 278°
2026-04-21 18:25 59.70137 42.59014 39881 ft 497 kts 277°
2026-04-21 18:26 59.70858 42.45419 39886 ft 497 kts 277°
2026-04-21 18:26 59.71554 42.31799 39886 ft 497 kts 277°
2026-04-21 18:27 59.72239 42.18188 39888 ft 497 kts 277°
2026-04-21 18:27 59.72914 42.04557 39887 ft 497 kts 277°
2026-04-21 18:28 59.73576 41.90932 39893 ft 497 kts 277°
2026-04-21 18:28 59.74224 41.77296 39896 ft 497 kts 277°
2026-04-21 18:29 59.74858 41.63665 39901 ft 497 kts 276°
2026-04-21 18:29 59.75643 41.50067 39900 ft 496 kts 281°
2026-04-21 18:30 59.76842 41.36594 39906 ft 496 kts 282°
2026-04-21 18:30 59.77857 41.25397 39905 ft 496 kts 281°
2026-04-21 18:31 59.79005 41.11886 39908 ft 496 kts 281°
2026-04-21 18:31 59.80096 40.98350 39908 ft 496 kts 280°
2026-04-21 18:32 59.81145 40.85011 39894 ft 477 kts 280°
2026-04-21 18:32 59.82144 40.72168 39903 ft 468 kts 280°
2026-04-21 18:33 59.83131 40.59393 39914 ft 468 kts 280°
2026-04-21 18:33 59.84106 40.46594 39914 ft 468 kts 280°
2026-04-21 18:34 59.85069 40.33780 39914 ft 468 kts 280°
2026-04-21 18:34 59.86013 40.21048 39917 ft 469 kts 280°
2026-04-21 18:35 59.86950 40.08213 39919 ft 469 kts 280°
2026-04-21 18:35 59.87877 39.95366 39924 ft 469 kts 280°
2026-04-21 18:36 59.88792 39.82489 39922 ft 470 kts 280°
2026-04-21 18:36 59.89695 39.69594 39927 ft 470 kts 279°
2026-04-21 18:37 59.90586 39.56688 39923 ft 470 kts 279°
2026-04-21 18:37 59.91463 39.43784 39926 ft 470 kts 279°
2026-04-21 18:38 59.92328 39.30873 39928 ft 470 kts 279°
2026-04-21 18:38 59.93186 39.17957 39923 ft 470 kts 279°
2026-04-21 18:39 59.94025 39.05010 39929 ft 471 kts 279°
2026-04-21 18:39 59.94852 38.92051 39927 ft 471 kts 279°
2026-04-21 18:40 59.95668 38.79089 39932 ft 471 kts 279°
2026-04-21 18:40 59.96336 38.68316 39930 ft 471 kts 279°
2026-04-21 18:41 59.97263 38.53151 39930 ft 471 kts 279°
2026-04-21 18:41 59.98043 38.40149 39934 ft 474 kts 279°
2026-04-21 18:42 59.98823 38.26957 39939 ft 482 kts 279°
2026-04-21 18:42 59.99597 38.13628 39940 ft 490 kts 279°
2026-04-21 18:43 60.00373 37.99998 39943 ft 497 kts 278°
2026-04-21 18:43 60.01145 37.86191 39944 ft 501 kts 278°
2026-04-21 18:44 60.01902 37.72355 39941 ft 500 kts 278°
2026-04-21 18:44 60.02648 37.58524 39955 ft 500 kts 278°
2026-04-21 18:45 60.03374 37.44694 39955 ft 500 kts 278°
2026-04-21 18:45 60.04088 37.30853 39955 ft 500 kts 278°
2026-04-21 18:46 60.04790 37.17000 39966 ft 500 kts 278°
2026-04-21 18:46 60.05477 37.03142 39966 ft 500 kts 278°
2026-04-21 18:47 60.06148 36.89273 39970 ft 501 kts 278°
2026-04-21 18:47 60.06805 36.75390 39972 ft 501 kts 278°
2026-04-21 18:48 60.07447 36.61502 39979 ft 501 kts 277°
2026-04-21 18:48 60.08075 36.47595 39979 ft 501 kts 277°
2026-04-21 18:49 60.08685 36.33779 39986 ft 501 kts 277°
2026-04-21 18:49 60.09187 36.22125 39972 ft 501 kts 277°
2026-04-21 18:50 60.09867 36.05959 39997 ft 501 kts 277°
2026-04-21 18:50 60.10440 35.92056 39996 ft 501 kts 277°
2026-04-21 18:51 60.10991 35.78138 39994 ft 501 kts 277°
2026-04-21 18:51 60.11527 35.64221 39996 ft 501 kts 277°
2026-04-21 18:52 60.12050 35.50291 39999 ft 501 kts 276°
2026-04-21 18:52 60.12559 35.36359 40005 ft 501 kts 276°
2026-04-21 18:53 60.13056 35.22410 40001 ft 501 kts 276°
2026-04-21 18:53 60.13540 35.08455 40007 ft 502 kts 276°
2026-04-21 18:54 60.14005 34.94486 40005 ft 502 kts 276°
2026-04-21 18:54 60.14232 34.87514 39853 ft 498 kts 276°
2026-04-21 18:54 60.14453 34.80581 39202 ft 499 kts 276°
2026-04-21 18:54 60.14674 34.73603 38371 ft 503 kts 276°
2026-04-21 18:55 60.14819 34.68952 37745 ft 505 kts 276°
2026-04-21 18:55 60.15107 34.59530 36734 ft 505 kts 277°
2026-04-21 18:55 60.15317 34.52501 36051 ft 504 kts 277°
2026-04-21 18:55 60.15523 34.45471 35337 ft 504 kts 277°
2026-04-21 18:56 60.15726 34.38446 34569 ft 505 kts 277°
2026-04-21 18:56 60.15928 34.31379 33697 ft 508 kts 278°
2026-04-21 18:56 60.16127 34.24297 32799 ft 509 kts 278°
2026-04-21 18:56 60.16321 34.17196 31924 ft 509 kts 278°
2026-04-21 18:57 60.16512 34.10101 31059 ft 510 kts 278°
2026-04-21 18:57 60.16697 34.03014 30451 ft 505 kts 278°
2026-04-21 18:57 60.16875 33.95995 29839 ft 500 kts 278°
2026-04-21 18:57 60.17047 33.89052 29179 ft 495 kts 278°
2026-04-21 18:58 60.17214 33.82203 28616 ft 488 kts 278°
2026-04-21 18:58 60.17376 33.75422 28034 ft 483 kts 278°
2026-04-21 18:58 60.17534 33.68730 27463 ft 478 kts 278°
2026-04-21 18:58 60.17688 33.62095 26895 ft 473 kts 278°
2026-04-21 18:59 60.17837 33.55531 26335 ft 468 kts 278°
2026-04-21 18:59 60.17983 33.49028 25774 ft 464 kts 278°
2026-04-21 18:59 60.18123 33.42581 25217 ft 460 kts 277°
2026-04-21 18:59 60.18258 33.36199 24665 ft 455 kts 277°
2026-04-21 19:00 60.18389 33.29873 24116 ft 451 kts 277°
2026-04-21 19:00 60.18515 33.23683 23559 ft 448 kts 277°
2026-04-21 19:00 60.18466 33.17438 22966 ft 448 kts 268°
2026-04-21 19:00 60.17866 33.11306 22415 ft 446 kts 260°
2026-04-21 19:01 60.17077 33.05326 21860 ft 441 kts 259°
2026-04-21 19:01 60.16257 32.99413 21302 ft 437 kts 258°
2026-04-21 19:01 60.15434 32.93582 20746 ft 433 kts 258°
2026-04-21 19:01 60.14612 32.87803 20202 ft 428 kts 258°
2026-04-21 19:02 60.13792 32.82081 19620 ft 425 kts 258°
2026-04-21 19:02 60.12977 32.76421 19061 ft 421 kts 258°
2026-04-21 19:02 60.12166 32.70805 18497 ft 417 kts 258°
2026-04-21 19:02 60.11359 32.65243 17881 ft 414 kts 257°
2026-04-21 19:03 60.10558 32.59744 17315 ft 408 kts 257°
2026-04-21 19:03 60.09765 32.54319 16751 ft 403 kts 257°
2026-04-21 19:03 60.08979 32.48957 16203 ft 399 kts 257°
2026-04-21 19:03 60.08198 32.43642 15651 ft 395 kts 257°
2026-04-21 19:04 60.07423 32.38389 15121 ft 392 kts 257°
2026-04-21 19:04 60.06653 32.33181 14583 ft 388 kts 256°
2026-04-21 19:04 60.05887 32.28020 14064 ft 385 kts 256°
2026-04-21 19:04 60.05066 32.22951 13517 ft 382 kts 253°
2026-04-21 19:05 60.04195 32.17955 12984 ft 378 kts 253°
2026-04-21 19:05 60.03333 32.13009 12441 ft 375 kts 253°
2026-04-21 19:05 60.02482 32.08104 11939 ft 371 kts 253°
2026-04-21 19:05 60.01644 32.03250 11422 ft 368 kts 253°
2026-04-21 19:06 60.00812 31.98432 10985 ft 363 kts 253°
2026-04-21 19:06 60.00004 31.93768 10838 ft 347 kts 253°
2026-04-21 19:06 59.99231 31.89305 10708 ft 333 kts 253°
2026-04-21 19:06 59.98489 31.85028 10575 ft 319 kts 253°
2026-04-21 19:07 59.97775 31.80924 10453 ft 307 kts 253°
2026-04-21 19:07 59.97089 31.76980 10303 ft 295 kts 253°
2026-04-21 19:07 59.96425 31.73169 10140 ft 288 kts 253°
2026-04-21 19:07 59.95779 31.69461 9858 ft 287 kts 253°
2026-04-21 19:08 59.95113 31.65640 9544 ft 294 kts 253°
2026-04-21 19:08 59.94437 31.61782 9231 ft 294 kts 252°
2026-04-21 19:08 59.93763 31.57955 8931 ft 292 kts 252°
2026-04-21 19:08 59.93090 31.54141 8625 ft 290 kts 252°
2026-04-21 19:09 59.92421 31.50356 8314 ft 289 kts 252°
2026-04-21 19:09 59.91754 31.46588 8010 ft 287 kts 252°
2026-04-21 19:09 59.91090 31.42843 7714 ft 285 kts 252°
2026-04-21 19:09 59.90430 31.39127 7421 ft 284 kts 252°
2026-04-21 19:10 59.89774 31.35445 7187 ft 278 kts 252°
2026-04-21 19:10 59.89139 31.31893 7042 ft 267 kts 252°
2026-04-21 19:10 59.88530 31.28487 6903 ft 256 kts 252°
2026-04-21 19:10 59.87937 31.25180 6667 ft 251 kts 252°
2026-04-21 19:11 59.87352 31.21911 6428 ft 250 kts 252°
2026-04-21 19:11 59.86741 31.18687 6156 ft 249 kts 247°
2026-04-21 19:11 59.85703 31.15959 5940 ft 250 kts 216°
2026-04-21 19:11 59.84171 31.14327 5947 ft 250 kts 202°
2026-04-21 19:12 59.83105 31.13443 5945 ft 251 kts 201°
2026-04-21 19:12 59.80942 31.11703 5943 ft 251 kts 201°
2026-04-21 19:12 59.79327 31.10393 5942 ft 251 kts 202°
2026-04-21 19:12 59.77715 31.09077 5944 ft 251 kts 202°
2026-04-21 19:13 59.76108 31.07846 5939 ft 251 kts 195°
2026-04-21 19:13 59.74402 31.07221 5948 ft 249 kts 185°
2026-04-21 19:13 59.72676 31.06864 5945 ft 250 kts 184°
2026-04-21 19:13 59.70949 31.06533 5942 ft 249 kts 184°
2026-04-21 19:14 59.69221 31.06195 5940 ft 249 kts 184°
2026-04-21 19:14 59.67530 31.05425 5945 ft 251 kts 201°
2026-04-21 19:14 59.65960 31.03930 5950 ft 251 kts 207°
2026-04-21 19:14 59.64429 31.02270 5942 ft 252 kts 211°
2026-04-21 19:15 59.63054 30.99908 5967 ft 272 kts 233°
2026-04-21 19:15 59.62340 30.96497 5968 ft 269 kts 267°
2026-04-21 19:15 59.62663 30.92939 5828 ft 264 kts 300°
2026-04-21 19:15 59.63627 30.89885 5484 ft 262 kts 308°
2026-04-21 19:16 59.64689 30.86917 5104 ft 260 kts 308°
2026-04-21 19:16 59.65699 30.84035 4830 ft 255 kts 307°
2026-04-21 19:16 59.66669 30.81186 4663 ft 244 kts 307°
2026-04-21 19:16 59.67587 30.78450 4498 ft 233 kts 307°
2026-04-21 19:17 59.69274 30.73363 4123 ft 207 kts 307°
2026-04-21 19:17 59.70042 30.71032 3823 ft 200 kts 307°
2026-04-21 19:17 59.70793 30.68758 3434 ft 196 kts 307°
2026-04-21 19:18 59.71515 30.66557 3227 ft 182 kts 307°
2026-04-21 19:18 59.72178 30.64523 3129 ft 170 kts 308°
2026-04-21 19:18 59.72794 30.62639 3016 ft 156 kts 308°
2026-04-21 19:18 59.73370 30.60881 2964 ft 148 kts 308°
2026-04-21 19:19 59.73913 30.59211 2892 ft 141 kts 308°
2026-04-21 19:19 59.74403 30.57577 2850 ft 136 kts 307°
2026-04-21 19:19 59.74814 30.55871 2782 ft 138 kts 297°
2026-04-21 19:19 59.75135 30.54065 2722 ft 139 kts 294°
2026-04-21 19:20 59.75332 30.52853 2662 ft 140 kts 294°
2026-04-21 19:20 59.75634 30.51016 2504 ft 140 kts 294°
2026-04-21 19:20 59.75914 30.49171 2315 ft 139 kts 292°
2026-04-21 19:20 59.76186 30.47333 2124 ft 139 kts 292°
2026-04-21 19:21 59.76461 30.45507 1926 ft 138 kts 291°
2026-04-21 19:21 59.76735 30.43680 1752 ft 138 kts 291°
2026-04-21 19:21 59.77006 30.41864 1553 ft 137 kts 290°
2026-04-21 19:21 59.77275 30.40053 1358 ft 136 kts 290°
2026-04-21 19:22 59.77544 30.38255 1164 ft 135 kts 288°
2026-04-21 19:22 59.77810 30.36469 968 ft 134 kts 288°
2026-04-21 19:22 59.78074 30.34702 787 ft 133 kts 286°
2026-04-21 19:22 59.78334 30.32949 618 ft 132 kts 285°
2026-04-21 19:23 59.78595 30.31199 418 ft 132 kts 285°
2026-04-21 19:23 59.78855 30.29455 258 ft 131 kts 285°
2026-04-21 19:23 59.79113 30.27714 129 ft 132 kts 285°
2026-04-21 19:23 59.79370 30.26005 95 ft 122 kts 286°
2026-04-21 19:24 59.79576 30.24634 93 ft 88 kts 286°
2026-04-21 19:24 59.79699 30.23831 92 ft 33 kts 287°
2026-04-21 19:24 59.79758 30.23457 92 ft 21 kts 287°
2026-04-21 19:24 59.79830 30.23214 90 ft 21 kts 311°
2026-04-21 19:25 59.79910 30.23055 91 ft 11 kts 334°
2026-04-21 19:25 59.79951 30.23067 91 ft 2 kts 60°
2026-04-21 19:25 59.79951 30.23179 91 ft 21 kts 108°
2026-04-21 19:25 59.79919 30.23458 87 ft 22 kts 102°
2026-04-21 19:26 59.79885 30.23730 91 ft 20 kts 105°
2026-04-21 19:26 59.79845 30.24008 89 ft 22 kts 107°
2026-04-21 19:26 59.79798 30.24313 90 ft 24 kts 107°
2026-04-21 19:26 59.79749 30.24642 92 ft 26 kts 106°
2026-04-21 19:27 59.79696 30.24996 90 ft 27 kts 107°
2026-04-21 19:27 59.79642 30.25371 92 ft 29 kts 106°
2026-04-21 19:27 59.79593 30.25706 92 ft 20 kts 106°
2026-04-21 19:27 59.79571 30.25939 95 ft 11 kts 69°
2026-04-21 19:28 59.79621 30.26015 91 ft 10 kts 26°
2026-04-21 19:28 59.79632 30.26062 94 ft 3 kts 106°
2026-04-21 19:28 59.79614 30.26166 93 ft 5 kts 108°
2026-04-21 19:28 59.79608 30.26201 91 ft 0 kts 108°